Regional Weather Roundup
Issued by NWS

Home | Current Version | Previous Version | Graphics & Text | Print | Product List | Glossary Off
Versions: 1 2 3 4 5 6 7 8 9 10 11 12 13 14 15 16 17 18 19 20 21 22 23 24 25 26 27 28 29 30 31 32 33 34 35 36 37 38 39 40 41 42 43 44 45 46 47 48 49 50

000
ASUS43 KDMX 260607
RWRIA

WEATHER ROUNDUP FOR IOWA
NATIONAL WEATHER SERVICE DES MOINES IA
100 AM CDT SUN APR 26 2015

NOTE: "FAIR" INDICATES FEW OR NO CLOUDS BELOW 12,000 FEET WITH NO
SIGNIFICANT WEATHER AND/OR OBSTRUCTIONS TO VISIBILITY.

* - THESE STATIONS ARE NOT NWS STATIONS...THUS NOT UNDER NWS
QUALITY CONTROL.  THEY ALSO DO NOT REPORT WEATHER SUCH
AS PRECIPITATION OR FOG.

IAZ001>003-012>014-020>022-031>034-043>046-260700-
   NORTHWEST IOWA

CITY           SKY/WX    TMP DP  RH WIND       PRES   REMARKS
CARROLL *      MOCLDY    45  39  81 NE5       29.93R
CHEROKEE *     MOCLDY    44  39  83 NE3       29.95R
DENISON *      CLOUDY    45  43  93 NE6       29.92R
LE MARS *      CLOUDY    52  41  66 E7        29.96R
ORANGE CITY *  CLOUDY    46  39  76 E5        29.95R
SHELDON *      CLEAR     39  37  93 NE7       29.95R WCI  34
SIOUX CITY     CLOUDY    50  40  68 SE3       29.94R
6HR MIN TEMP:  50; 6HR MAX TEMP:  57;

SPENCER        CLEAR     39  35  86 NE3       29.95R
6HR MIN TEMP:  39; 6HR MAX TEMP:  53;

STORM LAKE *   CLEAR     43  39  87 NE8       29.95R
$$

IAZ055>058-069>071-079>083-090>094-260700-
   SOUTHWEST IOWA

CITY           SKY/WX    TMP DP  RH WIND       PRES   REMARKS
ATLANTIC *     CLOUDY    45  43  93 NE6       29.92R
AUDUBON *      CLEAR     45  39  81 NE5       29.93R
CLARINDA *     CLOUDY    48  43  81 NE8       29.91R
COUNCIL BLFS * CLOUDY    46  46 100 NE10      29.91R
CRESTON *      CLEAR     45  43  93 NE10      29.90R
HARLAN  *      CLOUDY    46  46 100 NE7       29.95R
LAMONI         CLOUDY    47  41  80 NE8       29.88R
6HR MIN TEMP:  47; 6HR MAX TEMP:  49;

RED OAK *      CLOUDY    48  45  87 NE7       29.91R
SHENANDOAH *   CLOUDY    50  45  81 NE13      29.90R
$$

IAZ047>049-059>061-072>074-084-260700-
   CENTRAL IOWA

CITY           SKY/WX    TMP DP  RH WIND       PRES   REMARKS
AMES           CLOUDY    47  38  71 NE3       29.93R
6HR MIN TEMP:  47; 6HR MAX TEMP:  50;

ANKENY *       CLOUDY    46  41  81 NE7       29.91S
CHARITON *     CLOUDY    45  39  81 NE7G13    29.90R
DES MOINES     CLOUDY    48  39  71 E7        29.92R
6HR MIN TEMP:  48; 6HR MAX TEMP:  52;

GRINNELL*      CLOUDY    45  39  81 NE8       29.92R
KNOXVILLE *    CLOUDY    46  37  71 NE10      29.89R
MARSHALLTOWN   MOCLDY    44  38  79 NE6       29.92R
6HR MIN TEMP:  44; 6HR MAX TEMP:  50;

PELLA *        MOCLDY    45  42  89 NE5       29.92R
PERRY *          N/A     45  40  83 NE7       29.92R
$$

IAZ004>006-015-016-023>025-035-036-260700-
   NORTH CENTRAL IOWA

CITY           SKY/WX    TMP DP  RH WIND       PRES   REMARKS
ALGONA *       CLEAR     41  41 100 CALM      29.96R
CLARION *      CLEAR     37  37 100 NE8       29.94S WCI  31
ESTHERVILLE    PTCLDY    35  33  92 N5        29.95R WCI  31
6HR MIN TEMP:  34; 6HR MAX TEMP:  51;

FORT DODGE *   PTCLDY    43  36  75 N7        29.95R
MASON CITY     CLEAR     37  34  89 NW3       29.96R
6HR MIN TEMP:  34; 6HR MAX TEMP:  51;

FOREST CITY *  FOG       32  32 100 CALM      29.95R VSB 1
IOWA FALLS *   MOCLDY    45  37  76 CALM      29.94S
$$

IAZ007>011-017>019-026>030-037>042-050>054-066-260700-
   NORTHEAST IOWA

CITY           SKY/WX    TMP DP  RH WIND       PRES   REMARKS
CEDAR RAPIDS   CLOUDY    45  38  76 NE8       29.91R
6HR MIN TEMP:  45; 6HR MAX TEMP:  50;

CHARLES CITY * CLEAR     39  36  87 N7        29.95S WCI  34
CLINTON *      CLEAR     37  34  87 NE7       29.94S WCI  32
DECORAH *      CLEAR     37  34  87 CALM      29.95R
DUBUQUE        CLEAR     39  29  67 NE8       29.93R WCI  33
6HR MIN TEMP:  39; 6HR MAX TEMP:  48;

MONTICELLO *   CLEAR     43  37  81 NE5       29.92S
OELWEIN *      CLEAR     39  32  75 NE5       29.94S
WATERLOO       PTCLDY    41  35  79 NE5       29.94R
6HR MIN TEMP:  40; 6HR MAX TEMP:  50;

$$

IAZ064-065-067-068-078-260700-
   EAST CENTRAL IOWA

CITY           SKY/WX    TMP DP  RH WIND       PRES   REMARKS
DAVENPORT      CLOUDY    41  34  76 NE6       29.91R
6HR MIN TEMP:  41; 6HR MAX TEMP:  48;

IOWA CITY      CLOUDY    45  38  76 NE9       29.92S
6HR MIN TEMP:  45; 6HR MAX TEMP:  50;

MT. PLEASANT * PTCLDY    43  39  86 NE9       29.89S
MUSCATINE *    CLOUDY    46  37  71 NE9       29.91S
QUAD CITIES    PTCLDY    44  33  65 NE7       29.91R
6HR MIN TEMP:  44; 6HR MAX TEMP:  49;

$$

IAZ062-063-075>077-085>089-095>099-260700-
   SOUTHEAST IOWA

CITY           SKY/WX    TMP DP  RH WIND       PRES   REMARKS
BURLINGTON     CLOUDY    45  39  79 NE15      29.87R
6HR MIN TEMP:  45; 6HR MAX TEMP:  48;

FAIRFIELD *    CLOUDY    43  37  81 NE10      29.90R
FORT MADISON * CLOUDY    45  39  81 NE10      29.88R
KEOKUK *       CLOUDY    45  41  87 NE7G13    29.86R
OSKALOOSA *      N/A     42  38  84 NE8       29.91R
CENTERVILLE *  CLOUDY    46  43  87 NE10      29.89R
OTTUMWA        PTCLDY    44  38  79 NE9       29.89R
6HR MIN TEMP:  44; 6HR MAX TEMP:  49;

WASHINGTON *   MOCLDY    43  43 100 NE8       29.90R
$$

ABBREVIATIONS USED IN REMARKS
   TC - TEMPERATURES IN CELSIUS
  WCI - WIND CHILL INDEX
   HX - HEAT INDEX
  VSB - VISIBILITY
$$




USA.gov is the U.S. government's official web portal to all federal, state and local government web resources and services.